Time,TemperatureF,DewpointF,PressureIn,WindDirection,WindDirectionDegrees,WindSpeedMPH,WindSpeedGustMPH,Humidity,HourlyPrecipIn,Conditions,Clouds,dailyrainin,SoftwareType,DateUTC
2013-08-01 00:02:00,72.1,67.3,29.95,South,178,2.0,2.0,85,0.00,,,0.13,VWS V14.01,2013-08-01 05:02:00,
2013-08-01 00:07:00,72.0,67.6,29.95,South,178,0.0,2.0,86,0.00,,,0.00,VWS V14.01,2013-08-01 05:07:00,
2013-08-01 00:12:00,72.0,67.6,29.95,South,178,0.0,2.0,86,0.00,,,0.00,VWS V14.01,2013-08-01 05:12:00,
2013-08-01 00:17:00,71.8,67.7,29.95,South,178,0.0,2.0,87,0.00,,,0.00,VWS V14.01,2013-08-01 05:17:00,
2013-08-01 00:22:00,71.8,67.7,29.95,South,178,2.0,2.0,87,0.00,,,0.00,VWS V14.01,2013-08-01 05:22:00,
2013-08-01 00:27:00,71.6,67.5,29.95,South,178,0.0,3.0,87,0.00,,,0.00,VWS V14.01,2013-08-01 05:27:00,
2013-08-01 00:32:00,71.5,68.1,29.96,South,178,0.0,3.0,89,0.00,,,0.00,VWS V14.01,2013-08-01 05:32:00,
2013-08-01 00:37:00,71.3,67.9,29.96,South,178,0.0,0.0,89,0.00,,,0.00,VWS V14.01,2013-08-01 05:37:00,
2013-08-01 00:42:00,71.1,68.0,29.96,South,178,0.0,2.0,90,0.00,,,0.00,VWS V14.01,2013-08-01 05:42:00,
2013-08-01 00:47:00,70.9,68.2,29.96,South,178,0.0,2.0,91,0.00,,,0.00,VWS V14.01,2013-08-01 05:47:00,
2013-08-01 00:52:00,70.9,68.2,29.96,South,178,0.0,2.0,91,0.00,,,0.00,VWS V14.01,2013-08-01 05:52:00,
2013-08-01 00:57:00,70.9,68.5,29.96,South,178,0.0,3.0,92,0.00,,,0.00,VWS V14.01,2013-08-01 05:57:00,
2013-08-01 01:02:00,70.9,68.5,29.94,South,178,2.0,3.0,92,0.00,,,0.00,VWS V14.01,2013-08-01 06:02:00,
2013-08-01 01:07:00,70.8,68.4,29.94,South,178,1.0,2.0,92,0.00,,,0.00,VWS V14.01,2013-08-01 06:07:00,
2013-08-01 01:12:00,70.6,68.5,29.94,South,178,0.0,2.0,93,0.00,,,0.00,VWS V14.01,2013-08-01 06:12:00,
2013-08-01 01:17:00,70.6,68.5,29.93,South,178,0.0,2.0,93,0.00,,,0.00,VWS V14.01,2013-08-01 06:17:00,
2013-08-01 01:22:00,70.6,68.5,29.93,South,178,0.0,0.0,93,0.00,,,0.00,VWS V14.01,2013-08-01 06:22:00,
2013-08-01 01:27:00,70.8,68.4,29.93,South,178,0.0,2.0,92,0.00,,,0.00,VWS V14.01,2013-08-01 06:27:00,
2013-08-01 01:32:00,70.8,68.1,29.94,South,178,0.0,2.0,91,0.00,,,0.00,VWS V14.01,2013-08-01 06:32:00,
2013-08-01 01:37:00,70.9,68.2,29.94,South,178,0.0,0.0,91,0.00,,,0.00,VWS V14.01,2013-08-01 06:37:00,
2013-08-01 01:42:00,70.9,67.8,29.94,South,178,0.0,0.0,90,0.00,,,0.00,VWS V14.01,2013-08-01 06:42:00,
2013-08-01 01:47:00,70.9,67.8,29.95,South,178,0.0,0.0,90,0.00,,,0.00,VWS V14.01,2013-08-01 06:47:00,
2013-08-01 01:52:00,70.9,67.8,29.95,South,178,0.0,0.0,90,0.00,,,0.00,VWS V14.01,2013-08-01 06:52:00,
2013-08-01 01:57:00,70.9,67.8,29.95,South,178,0.0,0.0,90,0.00,,,0.00,VWS V14.01,2013-08-01 06:57:00,
2013-08-01 02:02:00,70.8,68.1,29.97,South,178,1.0,1.0,91,0.00,,,0.00,VWS V14.01,2013-08-01 07:02:00,
2013-08-01 02:07:00,70.6,69.1,29.97,South,178,0.0,2.0,95,0.00,,,0.00,VWS V14.01,2013-08-01 07:07:00,
2013-08-01 02:12:00,70.4,69.2,29.97,South,178,0.0,2.0,96,0.00,,,0.00,VWS V14.01,2013-08-01 07:12:00,
2013-08-01 02:17:00,69.9,69.9,29.95,South,178,2.0,3.0,100,0.00,,,0.00,VWS V14.01,2013-08-01 07:17:00,
2013-08-01 02:22:00,69.6,69.6,29.95,South,178,5.0,5.0,100,0.00,,,0.00,VWS V14.01,2013-08-01 07:22:00,
2013-08-01 02:27:00,68.9,68.9,29.95,South,178,5.0,6.0,100,0.00,,,0.00,VWS V14.01,2013-08-01 07:27:00,
2013-08-01 02:32:00,68.6,68.6,29.93,South,178,3.0,7.0,100,0.00,,,0.00,VWS V14.01,2013-08-01 07:32:00,
2013-08-01 02:33:00,68.6,68.6,29.93,South,178,5.0,7.0,100,0.00,,,0.00,VWS V14.01,2013-08-01 07:33:00,
2013-08-01 02:38:00,68.3,68.3,29.93,South,178,6.0,6.0,100,0.00,,,0.00,VWS V14.01,2013-08-01 07:38:00,
2013-08-01 02:43:00,68.1,68.1,29.93,South,184,7.0,11.0,100,0.00,,,0.00,VWS V14.01,2013-08-01 07:43:00,
2013-08-01 02:48:00,68.9,68.9,29.87,SSW,198,12.0,14.0,100,0.00,,,0.00,VWS V14.01,2013-08-01 07:48:00,
2013-08-01 02:53:00,69.9,67.8,29.87,South,188,10.0,13.0,93,0.00,,,0.00,VWS V14.01,2013-08-01 07:53:00,
2013-08-01 02:58:00,70.6,68.2,29.87,South,185,8.0,13.0,92,0.00,,,0.00,VWS V14.01,2013-08-01 07:58:00,
2013-08-01 03:03:00,71.1,67.7,29.88,SSW,192,8.0,13.0,89,0.00,,,0.00,VWS V14.01,2013-08-01 08:03:00,
2013-08-01 03:08:00,71.5,66.8,29.88,South,178,3.0,8.0,85,0.00,,,0.00,VWS V14.01,2013-08-01 08:08:00,
2013-08-01 03:13:00,71.6,66.9,29.88,South,178,0.0,8.0,85,0.00,,,0.00,VWS V14.01,2013-08-01 08:13:00,
2013-08-01 03:18:00,72.0,68.3,29.89,SE,134,3.0,4.0,88,0.00,,,0.00,VWS V14.01,2013-08-01 08:18:00,
2013-08-01 03:23:00,71.8,68.7,29.89,ESE,109,0.0,5.0,90,0.00,,,0.00,VWS V14.01,2013-08-01 08:23:00,
2013-08-01 03:28:00,71.5,68.1,29.89,ESE,109,1.0,5.0,89,0.00,,,0.00,VWS V14.01,2013-08-01 08:28:00,
2013-08-01 03:33:00,71.3,67.9,29.89,ESE,109,3.0,5.0,89,0.00,,,0.00,VWS V14.01,2013-08-01 08:33:00,
2013-08-01 03:38:00,70.9,67.5,29.89,ESE,109,0.0,5.0,89,0.00,,,0.00,VWS V14.01,2013-08-01 08:38:00,
2013-08-01 03:43:00,70.6,67.5,29.89,ESE,109,2.0,5.0,90,0.00,,,0.00,VWS V14.01,2013-08-01 08:43:00,
2013-08-01 03:48:00,70.4,68.0,29.91,ESE,109,0.0,1.0,92,0.00,,,0.00,VWS V14.01,2013-08-01 08:48:00,
2013-08-01 03:53:00,70.4,68.0,29.91,ESE,109,0.0,1.0,92,0.00,,,0.00,VWS V14.01,2013-08-01 08:53:00,
2013-08-01 03:59:00,70.3,67.9,29.91,ESE,109,0.0,1.0,92,0.00,,,0.00,VWS V14.01,2013-08-01 08:59:00,
2013-08-01 04:04:00,70.1,67.4,29.92,ESE,109,2.0,2.0,91,0.00,,,0.00,VWS V14.01,2013-08-01 09:04:00,
2013-08-01 04:09:00,69.9,67.2,29.92,ESE,109,0.0,2.0,91,0.00,,,0.00,VWS V14.01,2013-08-01 09:09:00,
2013-08-01 04:15:00,69.8,67.1,29.92,ESE,109,0.0,2.0,91,0.00,,,0.00,VWS V14.01,2013-08-01 09:15:00,
2013-08-01 04:20:00,69.6,67.5,29.93,ESE,109,0.0,0.0,93,0.00,,,0.00,VWS V14.01,2013-08-01 09:20:00,
2013-08-01 04:25:00,69.6,67.5,29.93,ESE,109,0.0,0.0,93,0.00,,,0.00,VWS V14.01,2013-08-01 09:25:00,
2013-08-01 04:31:00,69.6,67.5,29.93,ESE,109,0.0,0.0,93,0.00,,,0.00,VWS V14.01,2013-08-01 09:31:00,
2013-08-01 04:36:00,69.6,67.8,29.93,ESE,109,0.0,0.0,94,0.00,,,0.00,VWS V14.01,2013-08-01 09:36:00,
2013-08-01 04:42:00,69.4,67.3,29.93,ESE,109,0.0,0.0,93,0.00,,,0.00,VWS V14.01,2013-08-01 09:42:00,
2013-08-01 04:47:00,69.4,67.3,29.93,ESE,109,0.0,0.0,93,0.00,,,0.00,VWS V14.01,2013-08-01 09:47:00,
2013-08-01 04:52:00,69.3,67.5,29.93,ESE,109,0.0,0.0,94,0.00,,,0.00,VWS V14.01,2013-08-01 09:52:00,
2013-08-01 04:57:00,69.3,67.5,29.93,ESE,109,0.0,0.0,94,0.00,,,0.00,VWS V14.01,2013-08-01 09:57:00,
2013-08-01 05:02:00,69.1,67.3,29.94,ESE,109,0.0,0.0,94,0.00,,,0.00,VWS V14.01,2013-08-01 10:02:00,
2013-08-01 05:07:00,69.1,67.3,29.94,ESE,109,0.0,0.0,94,0.00,,,0.00,VWS V14.01,2013-08-01 10:07:00,
2013-08-01 05:13:00,68.9,67.1,29.94,ESE,109,0.0,0.0,94,0.00,,,0.00,VWS V14.01,2013-08-01 10:13:00,
2013-08-01 05:18:00,68.8,67.0,29.93,ESE,109,0.0,0.0,94,0.00,,,0.00,VWS V14.01,2013-08-01 10:18:00,
2013-08-01 05:24:00,68.8,66.7,29.93,ESE,109,0.0,2.0,93,0.00,,,0.00,VWS V14.01,2013-08-01 10:24:00,
2013-08-01 05:29:00,68.6,67.1,29.93,ESE,109,0.0,2.0,95,0.00,,,0.00,VWS V14.01,2013-08-01 10:29:00,
2013-08-01 05:34:00,68.6,67.1,29.93,ESE,109,0.0,0.0,95,0.00,,,0.00,VWS V14.01,2013-08-01 10:34:00,
2013-08-01 05:39:00,68.4,66.9,29.93,ESE,109,0.0,1.0,95,0.00,,,0.00,VWS V14.01,2013-08-01 10:39:00,
2013-08-01 05:44:00,68.3,66.8,29.93,ESE,109,0.0,1.0,95,0.00,,,0.00,VWS V14.01,2013-08-01 10:44:00,
2013-08-01 05:49:00,68.3,67.1,29.92,ESE,109,2.0,5.0,96,0.00,,,0.00,VWS V14.01,2013-08-01 10:49:00,
2013-08-01 05:54:00,68.1,67.2,29.92,ESE,109,0.0,5.0,97,0.00,,,0.00,VWS V14.01,2013-08-01 10:54:00,
2013-08-01 05:59:00,67.9,67.9,29.92,ESE,109,0.0,5.0,100,0.00,,,0.00,VWS V14.01,2013-08-01 10:59:00,
2013-08-01 06:04:00,67.8,67.8,29.92,ESE,109,0.0,2.0,100,0.00,,,0.00,VWS V14.01,2013-08-01 11:04:00,
2013-08-01 06:10:00,67.4,67.4,29.92,ESE,109,0.0,2.0,100,0.00,,,0.00,VWS V14.01,2013-08-01 11:10:00,
2013-08-01 06:15:00,67.4,67.4,29.92,ESE,109,0.0,2.0,100,0.00,,,0.00,VWS V14.01,2013-08-01 11:15:00,
2013-08-01 06:20:00,67.4,67.4,29.92,ESE,109,0.0,2.0,100,0.00,,,0.00,VWS V14.01,2013-08-01 11:20:00,
2013-08-01 06:25:00,67.4,67.4,29.92,ESE,109,0.0,2.0,100,0.00,,,0.00,VWS V14.01,2013-08-01 11:25:00,
2013-08-01 06:31:00,67.3,67.3,29.92,ESE,109,2.0,2.0,100,0.00,,,0.00,VWS V14.01,2013-08-01 11:31:00,
2013-08-01 06:37:00,67.3,67.3,29.92,ESE,109,1.0,2.0,100,0.00,,,0.00,VWS V14.01,2013-08-01 11:37:00,
2013-08-01 06:42:00,67.1,67.1,29.92,ESE,109,2.0,2.0,100,0.00,,,0.00,VWS V14.01,2013-08-01 11:42:00,
2013-08-01 06:47:00,66.9,66.9,29.92,ESE,109,0.0,2.0,100,0.00,,,0.00,VWS V14.01,2013-08-01 11:47:00,
2013-08-01 06:52:00,66.9,66.9,29.92,ESE,109,0.0,0.0,100,0.00,,,0.00,VWS V14.01,2013-08-01 11:52:00,
2013-08-01 06:57:00,66.9,66.9,29.92,ESE,109,0.0,2.0,100,0.00,,,0.00,VWS V14.01,2013-08-01 11:57:00,
2013-08-01 07:02:00,67.1,67.1,29.93,ESE,109,2.0,3.0,100,0.00,,,0.00,VWS V14.01,2013-08-01 12:02:00,
2013-08-01 07:07:00,67.1,67.1,29.93,ESE,109,1.0,3.0,100,0.00,,,0.00,VWS V14.01,2013-08-01 12:07:00,
2013-08-01 07:13:00,67.4,67.4,29.93,ESE,110,0.0,3.0,100,0.00,,,0.00,VWS V14.01,2013-08-01 12:13:00,
2013-08-01 07:18:00,67.6,67.6,29.92,ESE,110,0.0,0.0,100,0.00,,,0.00,VWS V14.01,2013-08-01 12:18:00,
2013-08-01 07:23:00,67.9,67.9,29.92,ESE,110,0.0,3.0,100,0.00,,,0.00,VWS V14.01,2013-08-01 12:23:00,
2013-08-01 07:28:00,68.1,68.1,29.92,ESE,110,0.0,3.0,100,0.00,,,0.00,VWS V14.01,2013-08-01 12:28:00,
2013-08-01 07:34:00,68.3,68.3,29.91,ESE,110,2.0,2.0,100,0.00,,,0.00,VWS V14.01,2013-08-01 12:34:00,
2013-08-01 07:39:00,68.4,68.4,29.91,SE,137,3.0,6.0,100,0.00,,,0.00,VWS V14.01,2013-08-01 12:39:00,
2013-08-01 07:44:00,68.6,68.6,29.91,SE,137,2.0,6.0,100,0.00,,,0.00,VWS V14.01,2013-08-01 12:44:00,
2013-08-01 07:49:00,68.8,68.8,29.90,SE,137,3.0,4.0,100,0.00,,,0.00,VWS V14.01,2013-08-01 12:49:00,
2013-08-01 07:54:00,68.9,68.9,29.90,SE,138,1.0,5.0,100,0.00,,,0.00,VWS V14.01,2013-08-01 12:54:00,
2013-08-01 07:59:00,69.1,69.1,29.90,SE,138,0.0,5.0,100,0.00,,,0.00,VWS V14.01,2013-08-01 12:59:00,
2013-08-01 08:05:00,69.4,69.4,29.90,SE,138,1.0,2.0,100,0.00,,,0.00,VWS V14.01,2013-08-01 13:05:00,
2013-08-01 08:10:00,69.8,69.8,29.90,SE,138,2.0,4.0,100,0.00,,,0.00,VWS V14.01,2013-08-01 13:10:00,
2013-08-01 08:15:00,70.3,70.3,29.90,South,181,6.0,7.0,100,0.00,,,0.00,VWS V14.01,2013-08-01 13:15:00,
2013-08-01 08:20:00,70.9,70.9,29.91,South,178,5.0,8.0,100,0.00,,,0.00,VWS V14.01,2013-08-01 13:20:00,
2013-08-01 08:25:00,71.6,71.6,29.91,South,185,7.0,10.0,100,0.00,,,0.00,VWS V14.01,2013-08-01 13:25:00,
2013-08-01 08:31:00,72.0,71.7,29.91,South,178,5.0,10.0,99,0.00,,,0.00,VWS V14.01,2013-08-01 13:31:00,
2013-08-01 08:36:00,72.3,72.0,29.90,South,188,3.0,8.0,99,0.00,,,0.00,VWS V14.01,2013-08-01 13:36:00,
2013-08-01 08:41:00,72.8,72.2,29.90,SSE,162,5.0,8.0,98,0.00,,,0.00,VWS V14.01,2013-08-01 13:41:00,
2013-08-01 08:46:00,73.2,72.0,29.90,South,191,7.0,8.0,96,0.00,,,0.00,VWS V14.01,2013-08-01 13:46:00,
2013-08-01 08:51:00,73.5,71.4,29.89,SSW,198,11.0,12.0,93,0.00,,,0.00,VWS V14.01,2013-08-01 13:51:00,
2013-08-01 08:57:00,73.7,71.2,29.89,SSW,200,6.0,12.0,92,0.00,,,0.00,VWS V14.01,2013-08-01 13:57:00,
2013-08-01 09:02:00,74.0,70.9,29.89,SSW,198,7.0,12.0,90,0.00,,,0.00,VWS V14.01,2013-08-01 14:02:00,
2013-08-01 09:08:00,74.2,70.8,29.89,SSW,198,9.0,12.0,89,0.00,,,0.00,VWS V14.01,2013-08-01 14:08:00,
2013-08-01 09:13:00,74.4,71.3,29.89,South,174,7.0,12.0,90,0.00,,,0.00,VWS V14.01,2013-08-01 14:13:00,
2013-08-01 09:18:00,74.7,71.6,29.89,South,181,5.0,6.0,90,0.00,,,0.00,VWS V14.01,2013-08-01 14:18:00,
2013-08-01 09:23:00,74.9,71.1,29.89,South,189,10.0,10.0,88,0.00,,,0.00,VWS V14.01,2013-08-01 14:23:00,
2013-08-01 09:28:00,75.1,71.0,29.89,South,188,6.0,11.0,87,0.00,,,0.00,VWS V14.01,2013-08-01 14:28:00,
2013-08-01 09:33:00,75.4,71.9,29.88,South,189,3.0,6.0,89,0.00,,,0.00,VWS V14.01,2013-08-01 14:33:00,
2013-08-01 09:38:00,75.6,70.4,29.88,South,188,8.0,14.0,84,0.00,,,0.00,VWS V14.01,2013-08-01 14:38:00,
2013-08-01 09:44:00,75.6,70.8,29.88,SSW,199,7.0,14.0,85,0.00,,,0.00,VWS V14.01,2013-08-01 14:44:00,
2013-08-01 09:49:00,76.0,71.9,29.88,South,185,3.0,7.0,87,0.00,,,0.00,VWS V14.01,2013-08-01 14:49:00,
2013-08-01 09:54:00,76.1,70.6,29.88,SSW,195,3.0,10.0,83,0.00,,,0.00,VWS V14.01,2013-08-01 14:54:00,
2013-08-01 09:59:00,76.3,71.1,29.88,SSW,200,8.0,12.0,84,0.00,,,0.00,VWS V14.01,2013-08-01 14:59:00,
2013-08-01 10:04:00,76.5,71.3,29.88,SSW,192,5.0,10.0,84,0.00,,,0.00,VWS V14.01,2013-08-01 15:04:00,
2013-08-01 10:09:00,76.7,71.2,29.88,SSW,198,7.0,10.0,83,0.00,,,0.00,VWS V14.01,2013-08-01 15:09:00,
2013-08-01 10:14:00,77.0,70.0,29.88,SSW,192,6.0,12.0,79,0.00,,,0.00,VWS V14.01,2013-08-01 15:14:00,
2013-08-01 10:19:00,77.2,69.8,29.88,SSW,199,10.0,13.0,78,0.00,,,0.00,VWS V14.01,2013-08-01 15:19:00,
2013-08-01 10:24:00,77.4,69.6,29.88,SSW,202,7.0,13.0,77,0.00,,,0.00,VWS V14.01,2013-08-01 15:24:00,
2013-08-01 10:29:00,77.4,69.2,29.88,South,188,6.0,13.0,76,0.00,,,0.00,VWS V14.01,2013-08-01 15:29:00,
2013-08-01 10:35:00,77.7,69.2,29.88,South,176,5.0,12.0,75,0.00,,,0.00,VWS V14.01,2013-08-01 15:35:00,
2013-08-01 10:39:00,77.9,68.9,29.88,SSW,193,7.0,12.0,74,0.00,,,0.00,VWS V14.01,2013-08-01 15:39:00,
2013-08-01 10:45:00,78.3,69.7,29.88,SSW,199,5.0,12.0,75,0.00,,,0.00,VWS V14.01,2013-08-01 15:45:00,
2013-08-01 10:50:00,78.5,69.5,29.88,SSW,198,6.0,12.0,74,0.00,,,0.00,VWS V14.01,2013-08-01 15:50:00,
2013-08-01 10:55:00,78.6,68.8,29.88,SSW,198,7.0,12.0,72,0.00,,,0.00,VWS V14.01,2013-08-01 15:55:00,
2013-08-01 11:00:00,78.8,68.6,29.88,SSW,193,13.0,13.0,71,0.00,,,0.00,VWS V14.01,2013-08-01 16:00:00,
2013-08-01 11:06:00,78.8,69.0,29.87,South,189,6.0,10.0,72,0.00,,,0.00,VWS V14.01,2013-08-01 16:06:00,
2013-08-01 11:11:00,78.8,69.0,29.87,SSW,196,10.0,11.0,72,0.00,,,0.00,VWS V14.01,2013-08-01 16:11:00,
2013-08-01 11:16:00,79.2,69.8,29.87,SSW,193,4.0,11.0,73,0.00,,,0.00,VWS V14.01,2013-08-01 16:16:00,
2013-08-01 11:21:00,79.4,67.9,29.87,South,181,5.0,10.0,68,0.00,,,0.00,VWS V14.01,2013-08-01 16:21:00,
2013-08-01 11:26:00,79.6,68.5,29.87,South,184,12.0,12.0,69,0.00,,,0.00,VWS V14.01,2013-08-01 16:26:00,
2013-08-01 11:31:00,79.8,68.3,29.87,South,188,7.0,12.0,68,0.00,,,0.00,VWS V14.01,2013-08-01 16:31:00,
2013-08-01 11:36:00,80.1,68.2,29.86,South,181,5.0,10.0,67,0.00,,,0.00,VWS V14.01,2013-08-01 16:36:00,
2013-08-01 11:41:00,80.3,67.0,29.86,South,171,7.0,14.0,64,0.00,,,0.00,VWS V14.01,2013-08-01 16:41:00,
2013-08-01 11:46:00,80.5,66.8,29.86,South,188,7.0,14.0,63,0.00,,,0.00,VWS V14.01,2013-08-01 16:46:00,
2013-08-01 11:51:00,80.5,68.1,29.86,South,179,7.0,10.0,66,0.00,,,0.00,VWS V14.01,2013-08-01 16:51:00,
2013-08-01 11:56:00,80.7,68.7,29.86,South,186,5.0,10.0,67,0.00,,,0.00,VWS V14.01,2013-08-01 16:56:00,
2013-08-01 12:02:00,80.9,68.9,29.87,South,186,5.0,11.0,67,0.00,,,0.00,VWS V14.01,2013-08-01 17:02:00,
2013-08-01 12:07:00,81.1,69.1,29.87,SSW,195,6.0,10.0,67,0.00,,,0.00,VWS V14.01,2013-08-01 17:07:00,
2013-08-01 12:12:00,81.2,68.3,29.87,South,184,5.0,10.0,65,0.00,,,0.00,VWS V14.01,2013-08-01 17:12:00,
2013-08-01 12:17:00,81.8,68.9,29.86,SSW,192,6.0,10.0,65,0.00,,,0.00,VWS V14.01,2013-08-01 17:17:00,
2013-08-01 12:23:00,82.0,68.6,29.86,SSW,195,3.0,12.0,64,0.00,,,0.00,VWS V14.01,2013-08-01 17:23:00,
2013-08-01 12:28:00,82.2,68.4,29.86,SSW,195,6.0,12.0,63,0.00,,,0.00,VWS V14.01,2013-08-01 17:28:00,
2013-08-01 12:33:00,82.2,70.2,29.86,South,179,5.0,5.0,67,0.00,,,0.00,VWS V14.01,2013-08-01 17:33:00,
2013-08-01 12:38:00,82.4,69.0,29.86,SSW,199,4.0,9.0,64,0.00,,,0.00,VWS V14.01,2013-08-01 17:38:00,
2013-08-01 12:43:00,82.6,69.2,29.86,SSW,192,5.0,11.0,64,0.00,,,0.00,VWS V14.01,2013-08-01 17:43:00,
2013-08-01 12:48:00,83.0,68.2,29.85,South,189,5.0,7.0,61,0.00,,,0.00,VWS V14.01,2013-08-01 17:48:00,
2013-08-01 12:53:00,83.4,67.6,29.85,South,189,4.0,7.0,59,0.00,,,0.00,VWS V14.01,2013-08-01 17:53:00,
2013-08-01 12:59:00,83.8,68.9,29.85,SSW,206,6.0,10.0,61,0.00,,,0.00,VWS V14.01,2013-08-01 17:59:00,
2013-08-01 13:04:00,83.8,69.4,29.85,SSW,203,7.0,10.0,62,0.00,,,0.00,VWS V14.01,2013-08-01 18:04:00,
2013-08-01 13:10:00,83.8,68.0,29.85,SSW,192,8.0,11.0,59,0.00,,,0.00,VWS V14.01,2013-08-01 18:10:00,
2013-08-01 13:15:00,84.0,66.6,29.85,SW,229,6.0,11.0,56,0.00,,,0.00,VWS V14.01,2013-08-01 18:15:00,
2013-08-01 13:20:00,84.1,67.2,29.84,SSW,196,6.0,12.0,57,0.00,,,0.00,VWS V14.01,2013-08-01 18:20:00,
2013-08-01 13:25:00,84.1,67.2,29.84,SSW,193,7.0,12.0,57,0.00,,,0.00,VWS V14.01,2013-08-01 18:25:00,
2013-08-01 13:30:00,84.3,65.9,29.84,SSW,198,9.0,12.0,54,0.00,,,0.00,VWS V14.01,2013-08-01 18:30:00,
2013-08-01 13:36:00,84.5,67.1,29.82,South,188,10.0,10.0,56,0.00,,,0.00,VWS V14.01,2013-08-01 18:36:00,
2013-08-01 13:41:00,84.9,63.6,29.82,South,189,7.0,10.0,49,0.00,,,0.00,VWS V14.01,2013-08-01 18:41:00,
2013-08-01 13:46:00,85.1,64.4,29.82,SSW,195,6.0,12.0,50,0.00,,,0.00,VWS V14.01,2013-08-01 18:46:00,
2013-08-01 13:51:00,85.7,65.5,29.80,SSW,195,4.0,11.0,51,0.00,,,0.00,VWS V14.01,2013-08-01 18:51:00,
2013-08-01 13:56:00,85.9,65.7,29.80,SSW,198,6.0,15.0,51,0.00,,,0.00,VWS V14.01,2013-08-01 18:56:00,
2013-08-01 14:01:00,86.1,64.1,29.80,SSW,192,5.0,15.0,48,0.00,,,0.00,VWS V14.01,2013-08-01 19:01:00,
2013-08-01 14:06:00,86.1,65.3,29.78,South,181,7.0,12.0,50,0.00,,,0.00,VWS V14.01,2013-08-01 19:06:00,
2013-08-01 14:11:00,85.5,65.9,29.78,SSW,202,12.0,14.0,52,0.00,,,0.00,VWS V14.01,2013-08-01 19:11:00,
2013-08-01 14:17:00,84.9,66.4,29.79,South,171,7.0,14.0,54,0.00,,,0.00,VWS V14.01,2013-08-01 19:17:00,
2013-08-01 14:22:00,84.9,66.9,29.79,SSW,193,6.0,13.0,55,0.00,,,0.00,VWS V14.01,2013-08-01 19:22:00,
2013-08-01 14:27:00,84.9,65.9,29.79,South,191,7.0,13.0,53,0.00,,,0.00,VWS V14.01,2013-08-01 19:27:00,
2013-08-01 14:32:00,84.7,65.1,29.78,South,191,9.0,13.0,52,0.00,,,0.00,VWS V14.01,2013-08-01 19:32:00,
2013-08-01 14:37:00,84.7,67.3,29.78,SSW,199,5.0,10.0,56,0.00,,,0.00,VWS V14.01,2013-08-01 19:37:00,
2013-08-01 14:42:00,84.5,66.6,29.78,SSW,195,6.0,10.0,55,0.00,,,0.00,VWS V14.01,2013-08-01 19:42:00,
2013-08-01 14:48:00,84.7,64.0,29.76,SSW,198,6.0,10.0,50,0.00,,,0.00,VWS V14.01,2013-08-01 19:48:00,
2013-08-01 14:53:00,85.5,66.4,29.76,South,188,11.0,12.0,53,0.00,,,0.00,VWS V14.01,2013-08-01 19:53:00,
2013-08-01 14:58:00,86.1,66.4,29.76,SSW,199,13.0,17.0,52,0.00,,,0.00,VWS V14.01,2013-08-01 19:58:00,
2013-08-01 15:03:00,86.5,66.2,29.74,South,182,10.0,15.0,51,0.00,,,0.00,VWS V14.01,2013-08-01 20:03:00,
2013-08-01 15:08:00,86.7,65.9,29.74,South,182,10.0,15.0,50,0.00,,,0.00,VWS V14.01,2013-08-01 20:08:00,
2013-08-01 15:14:00,87.0,66.1,29.74,SSW,196,10.0,17.0,50,0.00,,,0.00,VWS V14.01,2013-08-01 20:14:00,
2013-08-01 15:19:00,87.2,66.9,29.73,South,189,10.0,16.0,51,0.00,,,0.00,VWS V14.01,2013-08-01 20:19:00,
2013-08-01 15:24:00,87.2,66.9,29.73,SSW,200,14.0,19.0,51,0.00,,,0.00,VWS V14.01,2013-08-01 20:24:00,
2013-08-01 15:29:00,87.4,67.6,29.73,South,186,10.0,19.0,52,0.00,,,0.00,VWS V14.01,2013-08-01 20:29:00,
2013-08-01 15:35:00,87.2,68.0,29.72,South,189,14.0,19.0,53,0.00,,,0.00,VWS V14.01,2013-08-01 20:35:00,
2013-08-01 15:40:00,87.0,66.7,29.72,SSW,200,10.0,21.0,51,0.00,,,0.00,VWS V14.01,2013-08-01 20:40:00,
2013-08-01 15:45:00,86.5,67.3,29.72,South,189,14.0,21.0,53,0.00,,,0.00,VWS V14.01,2013-08-01 20:45:00,
2013-08-01 15:50:00,86.1,67.0,29.74,SSW,200,13.0,17.0,53,0.00,,,0.00,VWS V14.01,2013-08-01 20:50:00,
2013-08-01 15:56:00,86.3,66.6,29.74,SSW,210,10.0,17.0,52,0.00,,,0.00,VWS V14.01,2013-08-01 20:56:00,
2013-08-01 16:01:00,86.1,67.5,29.74,SSW,199,8.0,17.0,54,0.00,,,0.00,VWS V14.01,2013-08-01 21:01:00,
2013-08-01 16:06:00,85.7,68.2,29.71,South,184,12.0,18.0,56,0.00,,,0.00,VWS V14.01,2013-08-01 21:06:00,
2013-08-01 16:11:00,85.7,67.2,29.71,SSW,200,7.0,18.0,54,0.00,,,0.00,VWS V14.01,2013-08-01 21:11:00,
2013-08-01 16:16:00,86.5,67.3,29.71,SSW,199,10.0,18.0,53,0.00,,,0.00,VWS V14.01,2013-08-01 21:16:00,
2013-08-01 16:21:00,87.0,68.4,29.71,South,185,11.0,16.0,54,0.00,,,0.00,VWS V14.01,2013-08-01 21:21:00,
2013-08-01 16:26:00,87.0,68.9,29.71,SSW,192,11.0,16.0,55,0.00,,,0.00,VWS V14.01,2013-08-01 21:26:00,
2013-08-01 16:31:00,86.5,67.3,29.71,South,175,12.0,18.0,53,0.00,,,0.00,VWS V14.01,2013-08-01 21:31:00,
2013-08-01 16:36:00,86.7,67.0,29.70,South,191,12.0,14.0,52,0.00,,,0.00,VWS V14.01,2013-08-01 21:36:00,
2013-08-01 16:41:00,87.2,68.5,29.70,South,191,7.0,16.0,54,0.00,,,0.00,VWS V14.01,2013-08-01 21:41:00,
2013-08-01 16:46:00,87.2,68.0,29.70,SSW,200,7.0,18.0,53,0.00,,,0.00,VWS V14.01,2013-08-01 21:46:00,
2013-08-01 16:51:00,87.0,67.8,29.70,South,182,10.0,12.0,53,0.00,,,0.00,VWS V14.01,2013-08-01 21:51:00,
2013-08-01 16:56:00,87.2,69.6,29.70,SSW,199,7.0,12.0,56,0.00,,,0.00,VWS V14.01,2013-08-01 21:56:00,
2013-08-01 17:01:00,87.4,68.2,29.70,SSW,203,12.0,17.0,53,0.00,,,0.00,VWS V14.01,2013-08-01 22:01:00,
2013-08-01 17:06:00,87.4,68.7,29.69,South,176,8.0,18.0,54,0.00,,,0.00,VWS V14.01,2013-08-01 22:06:00,
2013-08-01 17:11:00,87.4,68.7,29.69,SSW,202,12.0,18.0,54,0.00,,,0.00,VWS V14.01,2013-08-01 22:11:00,
2013-08-01 17:17:00,87.2,69.6,29.68,South,174,7.0,18.0,56,0.00,,,0.00,VWS V14.01,2013-08-01 22:17:00,
2013-08-01 17:22:00,87.0,68.9,29.68,South,182,11.0,12.0,55,0.00,,,0.00,VWS V14.01,2013-08-01 22:22:00,
2013-08-01 17:27:00,87.2,68.5,29.68,SSW,209,6.0,17.0,54,0.00,,,0.00,VWS V14.01,2013-08-01 22:27:00,
2013-08-01 17:32:00,87.2,70.1,29.68,SSW,196,10.0,17.0,57,0.00,,,0.00,VWS V14.01,2013-08-01 22:32:00,
2013-08-01 17:37:00,87.2,70.1,29.68,South,188,8.0,18.0,57,0.00,,,0.00,VWS V14.01,2013-08-01 22:37:00,
2013-08-01 17:42:00,86.7,69.1,29.68,South,184,7.0,18.0,56,0.00,,,0.00,VWS V14.01,2013-08-01 22:42:00,
2013-08-01 17:47:00,86.5,69.0,29.68,SSW,195,8.0,18.0,56,0.00,,,0.00,VWS V14.01,2013-08-01 22:47:00,
2013-08-01 17:53:00,86.7,69.1,29.68,South,179,5.0,11.0,56,0.00,,,0.00,VWS V14.01,2013-08-01 22:53:00,
2013-08-01 17:58:00,86.7,69.7,29.68,South,188,10.0,12.0,57,0.00,,,0.00,VWS V14.01,2013-08-01 22:58:00,
2013-08-01 18:03:00,86.5,69.5,29.67,SSW,199,6.0,7.0,57,0.00,,,0.00,VWS V14.01,2013-08-01 23:03:00,
2013-08-01 18:08:00,86.7,69.1,29.67,South,191,7.0,14.0,56,0.00,,,0.00,VWS V14.01,2013-08-01 23:08:00,
2013-08-01 18:13:00,87.2,70.6,29.67,SSW,195,6.0,14.0,58,0.00,,,0.00,VWS V14.01,2013-08-01 23:13:00,
2013-08-01 18:18:00,87.4,69.8,29.66,South,189,5.0,11.0,56,0.00,,,0.00,VWS V14.01,2013-08-01 23:18:00,
2013-08-01 18:23:00,87.0,68.4,29.66,SSW,199,7.0,12.0,54,0.00,,,0.00,VWS V14.01,2013-08-01 23:23:00,
2013-08-01 18:28:00,86.3,68.8,29.66,South,189,7.0,12.0,56,0.00,,,0.00,VWS V14.01,2013-08-01 23:28:00,
2013-08-01 18:33:00,86.1,70.1,29.67,SSW,193,7.0,10.0,59,0.00,,,0.00,VWS V14.01,2013-08-01 23:33:00,
2013-08-01 18:38:00,85.9,69.9,29.67,SSW,192,5.0,10.0,59,0.00,,,0.00,VWS V14.01,2013-08-01 23:38:00,
2013-08-01 18:44:00,86.1,70.1,29.67,SSW,196,6.0,12.0,59,0.00,,,0.00,VWS V14.01,2013-08-01 23:44:00,
2013-08-01 18:49:00,86.1,69.1,29.67,SSW,196,7.0,12.0,57,0.00,,,0.00,VWS V14.01,2013-08-01 23:49:00,
2013-08-01 18:54:00,85.9,69.9,29.67,SSW,202,5.0,14.0,59,0.00,,,0.00,VWS V14.01,2013-08-01 23:54:00,
2013-08-01 18:59:00,85.9,69.9,29.67,SSW,193,7.0,14.0,59,0.00,,,0.00,VWS V14.01,2013-08-01 23:59:00,
2013-08-01 19:04:00,85.7,69.2,29.67,SSW,196,6.0,12.0,58,0.00,,,0.00,VWS V14.01,2013-08-02 00:04:00,
2013-08-01 19:09:00,85.5,69.6,29.67,SSW,196,7.0,12.0,59,0.00,,,0.00,VWS V14.01,2013-08-02 00:09:00,
2013-08-01 19:14:00,85.1,70.2,29.67,SSW,192,7.0,12.0,61,0.00,,,0.00,VWS V14.01,2013-08-02 00:14:00,
2013-08-01 19:19:00,84.9,68.5,29.67,South,185,6.0,7.0,58,0.00,,,0.00,VWS V14.01,2013-08-02 00:19:00,
2013-08-01 19:24:00,84.9,69.0,29.67,SSW,198,7.0,10.0,59,0.00,,,0.00,VWS V14.01,2013-08-02 00:24:00,
2013-08-01 19:30:00,84.7,69.3,29.67,South,188,5.0,10.0,60,0.00,,,0.00,VWS V14.01,2013-08-02 00:30:00,
2013-08-01 19:35:00,84.9,69.5,29.66,South,191,3.0,7.0,60,0.00,,,0.00,VWS V14.01,2013-08-02 00:35:00,
2013-08-01 19:40:00,84.7,69.8,29.66,SSW,200,4.0,7.0,61,0.00,,,0.00,VWS V14.01,2013-08-02 00:40:00,
2013-08-01 19:45:00,84.5,69.1,29.66,SSW,192,7.0,7.0,60,0.00,,,0.00,VWS V14.01,2013-08-02 00:45:00,
2013-08-01 19:50:00,84.3,69.4,29.66,SSW,192,2.0,5.0,61,0.00,,,0.00,VWS V14.01,2013-08-02 00:50:00,
2013-08-01 19:55:00,84.1,69.2,29.66,South,191,2.0,6.0,61,0.00,,,0.00,VWS V14.01,2013-08-02 00:55:00,
2013-08-01 20:00:00,84.0,69.6,29.66,South,184,2.0,7.0,62,0.00,,,0.00,VWS V14.01,2013-08-02 01:00:00,
2013-08-01 20:05:00,83.8,70.3,29.67,South,184,1.0,2.0,64,0.00,,,0.00,VWS V14.01,2013-08-02 01:05:00,
2013-08-01 20:10:00,83.6,69.7,29.67,South,184,0.0,2.0,63,0.00,,,0.00,VWS V14.01,2013-08-02 01:10:00,
2013-08-01 20:15:00,83.2,69.3,29.67,South,184,2.0,5.0,63,0.00,,,0.00,VWS V14.01,2013-08-02 01:15:00,
2013-08-01 20:21:00,83.0,69.6,29.66,South,184,1.0,3.0,64,0.00,,,0.00,VWS V14.01,2013-08-02 01:21:00,
2013-08-01 20:26:00,83.0,69.6,29.66,South,184,2.0,6.0,64,0.00,,,0.00,VWS V14.01,2013-08-02 01:26:00,
2013-08-01 20:31:00,82.6,69.7,29.66,South,184,2.0,6.0,65,0.00,,,0.00,VWS V14.01,2013-08-02 01:31:00,
2013-08-01 20:36:00,82.4,68.6,29.65,South,181,3.0,7.0,63,0.00,,,0.00,VWS V14.01,2013-08-02 01:36:00,
2013-08-01 20:41:00,82.2,69.3,29.65,South,181,3.0,7.0,65,0.00,,,0.00,VWS V14.01,2013-08-02 01:41:00,
2013-08-01 20:46:00,81.8,69.3,29.65,South,181,6.0,7.0,66,0.00,,,0.00,VWS V14.01,2013-08-02 01:46:00,
2013-08-01 20:51:00,81.6,69.6,29.65,South,181,2.0,7.0,67,0.00,,,0.00,VWS V14.01,2013-08-02 01:51:00,
2013-08-01 20:57:00,81.2,69.2,29.65,SSW,209,6.0,10.0,67,0.00,,,0.00,VWS V14.01,2013-08-02 01:57:00,
2013-08-01 21:02:00,81.1,68.7,29.65,SSW,193,7.0,11.0,66,0.00,,,0.00,VWS V14.01,2013-08-02 02:02:00,
2013-08-01 21:07:00,81.1,69.6,29.65,SSW,212,5.0,10.0,68,0.00,,,0.00,VWS V14.01,2013-08-02 02:07:00,
2013-08-01 21:12:00,80.9,68.9,29.65,SSW,203,5.0,11.0,67,0.00,,,0.00,VWS V14.01,2013-08-02 02:12:00,
2013-08-01 21:17:00,80.7,69.6,29.64,South,181,5.0,11.0,69,0.00,,,0.00,VWS V14.01,2013-08-02 02:17:00,
2013-08-01 21:22:00,80.5,69.4,29.64,SSE,167,4.0,9.0,69,0.00,,,0.00,VWS V14.01,2013-08-02 02:22:00,
2013-08-01 21:28:00,80.3,69.6,29.64,South,188,4.0,9.0,70,0.00,,,0.00,VWS V14.01,2013-08-02 02:28:00,
2013-08-01 21:33:00,80.1,69.0,29.65,SSE,168,3.0,5.0,69,0.00,,,0.00,VWS V14.01,2013-08-02 02:33:00,
2013-08-01 21:38:00,79.9,68.4,29.65,SSW,192,5.0,10.0,68,0.00,,,0.00,VWS V14.01,2013-08-02 02:38:00,
2013-08-01 21:43:00,79.6,69.0,29.65,South,182,5.0,10.0,70,0.00,,,0.00,VWS V14.01,2013-08-02 02:43:00,
2013-08-01 21:48:00,79.4,69.2,29.63,SSW,200,2.0,2.0,71,0.00,,,0.00,VWS V14.01,2013-08-02 02:48:00,
2013-08-01 21:53:00,79.2,69.0,29.63,SSE,161,2.0,7.0,71,0.00,,,0.00,VWS V14.01,2013-08-02 02:53:00,
2013-08-01 21:58:00,79.0,69.2,29.63,South,185,1.0,8.0,72,0.00,,,0.00,VWS V14.01,2013-08-02 02:58:00,
2013-08-01 22:03:00,78.8,68.6,29.60,South,185,6.0,8.0,71,0.00,,,0.00,VWS V14.01,2013-08-02 03:03:00,
2013-08-01 22:08:00,78.6,68.4,29.60,South,174,3.0,8.0,71,0.00,,,0.00,VWS V14.01,2013-08-02 03:08:00,
2013-08-01 22:13:00,78.5,68.7,29.60,SSE,158,6.0,8.0,72,0.00,,,0.00,VWS V14.01,2013-08-02 03:13:00,
2013-08-01 22:18:00,78.3,69.3,29.59,SSW,196,1.0,5.0,74,0.00,,,0.00,VWS V14.01,2013-08-02 03:18:00,
2013-08-01 22:23:00,78.1,68.3,29.59,SSE,165,7.0,11.0,72,0.00,,,0.00,VWS V14.01,2013-08-02 03:23:00,
2013-08-01 22:28:00,78.1,68.3,29.59,South,169,1.0,11.0,72,0.00,,,0.00,VWS V14.01,2013-08-02 03:28:00,
2013-08-01 22:33:00,78.1,69.1,29.64,East,90,2.0,5.0,74,0.00,,,0.00,VWS V14.01,2013-08-02 03:33:00,
2013-08-01 22:38:00,77.2,71.3,29.64,East,79,6.0,6.0,82,0.00,,,0.00,VWS V14.01,2013-08-02 03:38:00,
2013-08-01 22:44:00,76.3,71.1,29.64,NE,45,10.0,14.0,84,0.00,,,0.00,VWS V14.01,2013-08-02 03:44:00,
2013-08-01 22:49:00,73.9,70.1,29.66,NE,54,12.0,12.0,88,0.00,,,0.00,VWS V14.01,2013-08-02 03:49:00,
2013-08-01 22:54:00,73.0,70.5,29.66,NNE,24,7.0,14.0,92,0.00,,,0.00,VWS V14.01,2013-08-02 03:54:00,
2013-08-01 22:59:00,73.2,70.4,29.66,North,0,5.0,14.0,91,0.00,,,0.00,VWS V14.01,2013-08-02 03:59:00,
2013-08-01 23:01:00,73.0,69.9,29.66,North,359,10.0,14.0,90,0.00,,,0.00,VWS V14.01,2013-08-02 04:01:00,
2013-08-01 23:02:00,72.7,69.6,29.73,NNE,18,12.0,14.0,90,0.00,,,0.00,VWS V14.01,2013-08-02 04:02:00,
2013-08-01 23:03:00,72.5,68.4,29.73,North,10,11.0,14.0,87,0.00,,,0.00,VWS V14.01,2013-08-02 04:03:00,
2013-08-01 23:08:00,71.8,68.4,29.73,North,3,13.0,16.0,89,0.00,,,0.00,VWS V14.01,2013-08-02 04:08:00,
2013-08-01 23:12:00,71.6,68.2,29.73,North,11,18.0,26.0,89,0.00,,,0.00,VWS V14.01,2013-08-02 04:12:00,
2013-08-01 23:16:00,70.8,68.7,29.73,NE,35,12.0,26.0,93,0.00,,,0.00,VWS V14.01,2013-08-02 04:16:00,
2013-08-01 23:21:00,69.8,69.2,29.73,NE,47,13.0,15.0,98,0.01,,,0.01,VWS V14.01,2013-08-02 04:21:00,
2013-08-01 23:26:00,69.4,69.4,29.73,North,359,8.0,15.0,100,0.02,,,0.02,VWS V14.01,2013-08-02 04:26:00,
2013-08-01 23:31:00,68.6,68.6,29.73,North,7,14.0,17.0,100,0.04,,,0.04,VWS V14.01,2013-08-02 04:31:00,
2013-08-01 23:36:00,66.9,66.9,29.78,NNW,347,19.0,24.0,100,0.09,,,0.09,VWS V14.01,2013-08-02 04:36:00,
2013-08-01 23:41:00,65.5,65.5,29.78,NNE,20,16.0,24.0,100,0.23,,,0.23,VWS V14.01,2013-08-02 04:41:00,
2013-08-01 23:46:00,65.3,65.3,29.78,North,359,7.0,24.0,100,0.50,,,0.50,VWS V14.01,2013-08-02 04:46:00,
2013-08-01 23:52:00,64.7,64.7,29.82,WSW,247,7.0,7.0,100,0.68,,,0.68,VWS V14.01,2013-08-02 04:52:00,
2013-08-01 23:57:00,64.0,64.0,29.82,WSW,258,0.0,17.0,100,0.74,,,0.74,VWS V14.01,2013-08-02 04:57:00,